星链-3891 (STARLINK-3891 )

导读 | 豆包AI

STARLINK-3891是美国SpaceX公司星链(Starlink)卫星互联网项目的成员,于2022年5月14日发射升空,作为星链星座的一员,它旨在为全球提供高速低延迟互联网接入服务,填补偏远地区网络覆盖空白,助力全球互联与数字经济发展。

Basic Information
目录编号:
52650
目录名称:
STARLINK-3891
国际标识:
2022-052BE
轨道中心:
EARTH
卫星名称:
星链-3891
卫星全名:
星链-3891 (STARLINK-3891 )
卫星状态:
在轨 (已飞行1447 天)
发射日期:
2022-05-14 UTC
国别 :
美国 (US)
星等 :
--
Orbit Information
数据来源 国际轨道数据 AOE轨道数据
星历时间 2026-04-30T22:16:03+0800
8小时前
查看轨道信息
2026-04-30T20:00:00+0800
11小时前
查看轨道信息
半长轴 6917.888km 6917.85km
偏心率 0.0001433 0.0001226
轨道倾角 53.218° 53.219°
近地点辐角 91.160° 105.985°
升交点赤经 16.218° 16.643°
平近点角 268.955° 100.702°
近地点 538.759km 538.864km
远地点 540.743km 540.562km
周期 95.438分钟 95.437分钟
每日圈数 15.088378 15.088501
Detailed Information
固有亮度:
5
最大亮度:
2.5
卫星平台:
Starlink v1.5
覆盖范围:
全球
运营商:
太空探索技术公司
运营商所在国:
美国
制造商(研发单位):
太空探索技术公司
制造商所在国:
美国
使用方式:
暂无
Satellite Introduction
星链(Starlink)计划是由太空探索技术公司(SpaceX)提出的一个巨型低轨卫星互联网星座项目,计划在2019年至2024年间在太空搭建由约1.2万颗卫星组成的“星链”网络,其中1584颗将部署在地球上空550千米处的近地轨道,并从2020年开始工作。该卫星仍在工作。
2D Orbit Map
3D Orbit Map
Orbit Altitude Analysis Chart
Orbit Inclination Analysis Chart
Orbit Comprehensive Analysis Chart
View Comprehensive Chart